JCSAT 13

导读

JCSAT 13是日本(JP)于2012年5月15日发射的通信卫星,隶属于日本卫星系统公司(JSAT)。该卫星定位地球静止轨道,主要服务于亚太区域,提供高清电视转播、宽带通信、应急通信等业务,接替退役卫星增强覆盖能力,搭载先进转发器,以高可靠性保障日韩及周边地区的稳定通信服务,是日本商业通信卫星布局中的重要节点。

基本信息
目录编号:
38331
目录名称:
JCSAT 13
国际标识:
2012-023A
轨道中心:
EARTH
卫星名称:
JCSAT 13
卫星全名:
--
卫星状态:
在轨 (已飞行5235 天)
发射日期:
2012-05-15 UTC
国别 :
日本 (JP)
星等 :
--
该卫星已列入 空间交会检测服务 Space Conjunction Data Service (SCDS) ,当前飞行风险评估等级: 无高风险
轨道信息
数据来源 国际轨道数据 AOE轨道数据
星历时间 2026-09-14T04:34:39+0800
4小时前
查看轨道信息
2026-09-13T03:00:00+0800
1天前
查看轨道信息
半长轴 42164.196km 42163.999km
偏心率 0.0002387 0.0002481
轨道倾角 0.032° 0.035°
近地点辐角 258.728° 251.575°
升交点赤经 259.931° 263.231°
平近点角 266.858° 245.994°
近地点 35775.994km 35775.401km
远地点 35796.124km 35796.323km
周期 1436.069分钟 1436.059分钟
每日圈数 1.002737 1.002744
详细信息
使用方式:
暂无
2D轨道图
3D轨道图
轨道高度分析图
轨道倾角分析图
轨道综合分析图
查看轨道综合分析图
与全量物体交会距离演化趋势
与全量物体交会风险概率演化趋势